Location: Namasale
(1.5000°N, 32.6167°E)
Time: 14:27:14
(UTC+00:00)

SR - All Passes

Search period start: 23 April 2021 00:00
Search period end: 03 May 2021 00:00
Orbit: 573 x 882 km, 66.7° (Epoch: 22 April)

Date Brightness Start Highest point End Pass type
(mag) Time Alt. Az. Time Alt. Az. Time Alt. Az.
23 Apr - 02:15:47 10° SSE 02:19:52 25° ESE 02:24:14 10° NE visible
23 Apr - 03:58:01 10° WSW 04:01:42 20° WNW 04:05:36 10° NNW daylight
23 Apr - 14:41:11 10° NNW 14:46:21 75° ENE 14:51:03 10° SSE daylight
24 Apr - 03:07:00 10° SW 03:11:52 50° WNW 03:17:10 10° N visible
24 Apr - 13:52:13 10° N 13:56:34 27° ENE 14:00:36 10° SE daylight
24 Apr - 15:35:17 10° WNW 15:38:15 16° WSW 15:41:07 10° SW daylight
25 Apr - 02:17:14 10° S 02:22:10 61° ESE 02:27:32 10° NNE visible
25 Apr - 14:43:52 10° NW 14:48:40 43° WSW 14:53:05 10° S daylight
26 Apr - 01:28:35 10° SSE 01:32:33 23° ESE 01:36:46 10° NE visible
26 Apr - 03:10:26 10° WSW 03:14:22 22° WNW 03:18:32 10° NNW visible
26 Apr - 13:53:54 10° NNW 13:59:00 67° ENE 14:03:40 10° SSE daylight
27 Apr - 02:19:36 10° SSW 02:24:32 56° WNW 02:29:55 10° N visible
27 Apr - 13:05:05 10° NNE 13:09:13 25° ENE 13:13:05 10° ESE daylight
27 Apr - 14:47:42 10° WNW 14:50:56 17° WSW 14:54:01 10° SSW daylight
28 Apr - 01:29:56 10° S 01:34:50 56° ESE 01:40:11 10° NNE visible
28 Apr - 13:56:29 10° NW 14:01:20 47° WSW 14:05:49 10° S daylight
29 Apr - 00:41:25 10° SSE 00:45:14 21° ESE 00:49:16 10° ENE visible
29 Apr - 02:22:53 10° WSW 02:27:01 24° WNW 02:31:25 10° NNW visible
29 Apr - 13:06:38 10° N 13:11:40 60° ENE 13:16:15 10° SSE daylight
30 Apr - 01:32:12 10° SSW 01:37:12 62° WNW 01:42:40 10° N visible
30 Apr - 12:17:57 10° NNE 12:21:51 22° ENE 12:25:32 10° ESE daylight
30 Apr - 14:00:08 10° WNW 14:03:36 19° WSW 14:06:54 10° SSW daylight
01 May - 00:42:38 10° S 00:47:31 51° ESE 00:52:50 10° NE visible
01 May - 02:28:54 10° WNW 02:29:35 10° WNW 02:30:15 10° WNW visible
01 May - 13:09:07 10° NNW 13:14:00 53° WSW 13:18:30 10° S daylight
01 May - 23:54:16 10° SSE 23:57:55 20° ESE 00:01:44 10° ENE visible
02 May - 01:35:21 10° SW 01:39:40 27° WNW 01:44:17 10° NNW visible
02 May - 12:19:23 10° N 12:24:19 54° ENE 12:28:51 10° SSE daylight
